Simultaneous Nadir Overpasses (SNOs) Predictions

Prediction of SNOs between GOES-16 and AQUA Satellite Orbit:

Table of predicted SNOs for the next 14.0 days since TLE Epoch: 2/24/2024
Index Date Time (GOES-16) GOES-16 Lat,Lon AQUA Lat,Lon Distance(km) Time Diff (sec)
1 02/24/2024 06:54:32 -0.07, -75.21 -0.46, -73.34 211.58 80
2 02/24/2024 19:15:03 0.07, -75.21 -0.57, -78.31 352.86 80
3 02/26/2024 19:02:02 0.06, -75.22 0.21, -74.48 84.43 80
4 02/27/2024 07:22:23 -0.06, -75.23 0.84, -79.40 474.76 80
5 02/29/2024 07:06:42 -0.06, -75.25 -0.00, -75.57 36.66 80
6 03/02/2024 06:48:20 -0.06, -75.27 -0.83, -71.74 402.00 80
7 03/02/2024 19:08:49 0.06, -75.27 -0.27, -76.69 162.03 80
8 03/04/2024 18:55:46 0.05, -75.29 0.56, -72.85 277.36 80
9 03/05/2024 07:16:07 -0.04, -75.30 0.46, -77.78 281.17 80
10 03/07/2024 06:57:42 -0.04, -75.33 -0.31, -73.92 159.01 80
11 03/07/2024 19:18:10 0.03, -75.33 -0.76, -78.88 404.84 80
